Weather History for KOWB - December, 2013

Change the Weather History Date:

Friday, December 20, 2013

  Actual Average (WUND) Record (WUND)
Temperature  
Mean Temperature 56 °F -  
Max Temperature 61 °F - - (-1)
Min Temperature 52 °F - - (-1)
Degree Days  
Heating Degree Days 8    
Growing Degree Days 6 (Base 50)    
Moisture  
Dew Point 55 °F    
Average Humidity 92    
Maximum Humidity 100    
Minimum Humidity 72    
Precipitation  
Precipitation 0.06 in - - ()
Sea Level Pressure  
Sea Level Pressure 29.89 in    
Wind  
Wind Speed 15 mph (SSW)    
Max Wind Speed 21 mph    
Max Gust Speed 29 mph    
Visibility 10 miles    
Events Rain    
Averages and records for this station are not official NWS values.
T = Trace of Precipitation, MM = Missing Value Source: NWS Daily Summary

Daily Weather History Graph

Daily Weather History Graph

Search for Another Location

Airport or City:

Trip Planner

Search our weather history database for the weather conditions in past years. The results will help you decide how hot, cold, wet, or windy it might be!

Date:

Astronomy

Dec. 20, 2013 Rise Set
Actual Time 6:59 AM CST 4:33 PM CST
Civil Twilight 6:30 AM CST 5:02 PM CST
Nautical Twilight 5:57 AM CST 5:35 PM CST
Astronomical Twilight 5:25 AM CST 6:07 PM CST
Moon 7:50 PM CST (12/20) 8:56 AM CST (12/20)
Length of Visible Light 10h 31m
Length of Day
9h 33m
Waning Gibbous, 90% of the Moon is Illuminated
Dec 20
Waning Gibbous
Dec 25
Last Quarter
Jan 1
New
Jan 7
First Quarter
Jan 15
Full

Hourly Weather History & Observations

Time (CST) Temp. Dew Point Humidity Pressure Visibility Wind Dir Wind Speed Gust Speed Precip Events Conditions
12:56 AM 54.0 °F 45.9 °F 74% 29.94 in 10.0 mi South 13.8 mph - N/A   Overcast
1:56 AM 54.0 °F 45.0 °F 72% 29.94 in 10.0 mi South 17.3 mph 23.0 mph N/A   Mostly Cloudy
2:56 AM 54.0 °F 45.0 °F 72% 29.94 in 10.0 mi South 16.1 mph - N/A   Overcast
3:56 AM 54.0 °F 45.0 °F 72% 29.93 in 10.0 mi South 13.8 mph - N/A   Overcast
4:56 AM 54.0 °F 45.0 °F 72% 29.93 in 10.0 mi South 12.7 mph - N/A   Mostly Cloudy
5:56 AM 52.9 °F 46.9 °F 80% 29.92 in 10.0 mi South 11.5 mph 19.6 mph 0.00 in Rain Light Rain
6:56 AM 52.0 °F 48.9 °F 89% 29.93 in 10.0 mi South 12.7 mph - 0.05 in   Overcast
7:56 AM 52.0 °F 52.0 °F 100% 29.93 in 7.0 mi South 12.7 mph - 0.00 in Rain Light Rain
8:56 AM 54.0 °F 52.9 °F 96% 29.93 in 10.0 mi South 16.1 mph - 0.01 in   Overcast
9:56 AM 55.9 °F 54.9 °F 96% 29.93 in 10.0 mi South 16.1 mph - 0.00 in   Overcast
10:56 AM 57.9 °F 56.8 °F 96% 29.92 in 10.0 mi SSW 16.1 mph - N/A   Overcast
11:56 AM 59.9 °F 57.9 °F 93% 29.90 in 10.0 mi SSW 19.6 mph 28.8 mph N/A   Overcast
12:56 PM 59.9 °F 59.0 °F 97% 29.87 in 10.0 mi SSW 20.7 mph 25.3 mph N/A   Overcast
1:56 PM 59.9 °F 59.0 °F 97% 29.87 in 10.0 mi SSW 16.1 mph - N/A   Overcast
2:56 PM 59.9 °F 59.0 °F 97% 29.87 in 8.0 mi SSW 12.7 mph - N/A   Overcast
3:56 PM 59.9 °F 59.9 °F 100% 29.86 in 7.0 mi South 17.3 mph - N/A   Overcast
4:56 PM 59.9 °F 59.9 °F 100% 29.87 in 10.0 mi SSW 15.0 mph - 0.00 in   Overcast
5:56 PM 59.9 °F 59.9 °F 100% 29.88 in 8.0 mi South 12.7 mph - 0.00 in Rain Light Rain
6:56 PM 59.9 °F 59.9 °F 100% 29.88 in 10.0 mi South 12.7 mph - 0.00 in   Overcast
7:56 PM 59.9 °F 59.9 °F 100% 29.86 in 10.0 mi South 17.3 mph - N/A   Scattered Clouds
8:05 PM 60.8 °F 60.8 °F 100% 29.87 in 10.0 mi South 17.3 mph - N/A   Mostly Cloudy
8:32 PM 60.8 °F 60.8 °F 100% 29.86 in 10.0 mi South 15.0 mph - N/A   Overcast
8:56 PM 61.0 °F 61.0 °F 100% 29.85 in 10.0 mi South 15.0 mph - N/A   Overcast
9:56 PM 61.9 °F 61.9 °F 100% 29.84 in 10.0 mi SSW 16.1 mph - N/A   Overcast
10:56 PM 61.9 °F 61.9 °F 100% 29.84 in 10.0 mi SSW 13.8 mph - N/A   Overcast
11:56 PM 61.0 °F 61.0 °F 100% 29.83 in 10.0 mi SSW 13.8 mph - 0.00 in   Overcast